Regional Weather Roundup
Issued by NWS

Home | Current Version | Previous Version | Text Only | Print | Product List | Glossary Off
Versions: 1 2 3 4 5 6 7 8 9 10 11 12 13 14 15 16 17 18 19 20 21 22 23 24 25 26 27 28 29 30 31 32 33 34 35 36 37 38 39 40 41 42 43 44 45 46 47 48 49 50

000
ASUS43 KOAX 300510
RWRNE

WEATHER ROUNDUP FOR NEBRASKA
NATIONAL WEATHER SERVICE OMAHA NE
1100 PM CST THU JAN 29 2015

NOTES: SATELLITE DATA IS BEING USED TO AUGMENT CLOUD COVER ABOVE
       12000 FEET.
       "FAIR" INDICATES FEW OR NO CLOUDS BELOW 12,000 FEET WITH NO
       SIGNIFICANT WEATHER AND/OR OBSTRUCTIONS TO VISIBILITY.

  * THESE STATIONS DO NOT REPORT WEATHER SUCH AS RAIN...SNOW OR FOG.

NEZ001>004-019>022-054>056-300600-
NEBRASKA PANHANDLE

CITY           SKY/WX    TMP DP  RH WIND       PRES   REMARKS
SCOTTSBLUFF    MOCLDY    28  22  78 E9        30.37F WCI  19
ALLIANCE       CLEAR     24  18  77 S7        30.37F WCI  16
CHADRON        CLEAR     30  19  63 CALM      30.36F
KIMBALL        MOCLDY    28  18  66 S8        30.35F WCI  20
SIDNEY         MOCLDY    27  19  72 S7        30.39F WCI  19
$$

NEZ057>060-069>072-079>082-300600-
SOUTHWEST NEBRASKA

CITY           SKY/WX    TMP DP  RH WIND       PRES   REMARKS
NORTH PLATTE   PTCLDY    18  13  80 E3        30.46S
IMPERIAL       PTCLDY    26  17  68 S5        30.45S WCI  20
LEXINGTON      PTCLDY    19  17  89 N3        30.48S
MCCOOK         CLEAR     23  17  78 W7        30.48S WCI  15
OGALLALA       PTCLDY    21  17  83 CALM      30.44S
$$

NEZ005>010-023>029-035>040-094-300600-
NORTH CENTRAL NEBRASKA

CITY           SKY/WX    TMP DP  RH WIND       PRES   REMARKS
VALENTINE      CLEAR     24  18  77 NE3       30.43F
AINSWORTH      CLEAR     21  17  84 SE3       30.45S
BROKEN BOW     CLEAR     20  14  77 CALM      30.47S
O`NEILL        CLEAR     22  20  93 CALM      30.51R
ORD            CLEAR     18  14  84 CALM      30.48S
THEDFORD       CLEAR     24  18  77 CALM      30.44F
$$

NEZ041-046>049-061>064-073>077-083>087-300600-
SOUTH CENTRAL NEBRASKA

CITY           SKY/WX    TMP DP  RH WIND       PRES   REMARKS
GRAND ISLAND     N/A     24  18  77 MISG      30.51S
AURORA         PTCLDY    25  20  83 E5        30.51R WCI  19
HASTINGS       PTCLDY    23  15  71 CALM      30.50R
HEBRON         PTCLDY    21  16  82 CALM      30.52S
HOLDREGE       PTCLDY    22  15  75 CALM      30.48S
KEARNEY *      PTCLDY    25  16  68 NW5       30.49S WCI  19
YORK           CLEAR     25  19  80 E7        30.52R WCI  17
$$

NEZ011>018-030>034-042>045-300600-
NORTHEAST NEBRASKA

CITY           SKY/WX    TMP DP  RH WIND       PRES   REMARKS
NORFOLK        CLEAR     22  18  85 CALM      30.52R
ALBION         PTCLDY    20  16  87 CALM      30.51S
BLAIR          CLEAR     28  21  77 N8        30.52S WCI  19
COLUMBUS *     CLEAR     21  10  63 CALM      30.54S
FREMONT        CLEAR     22  19  89 CALM      30.54S
TEKAMAH        CLEAR     27  20  75 N7        30.54F WCI  19
WAYNE          CLEAR     16  14  93 CALM      30.54S
$$

NEZ050>053-065>068-078-088>093-300600-
SOUTHEAST NEBRASKA

CITY           SKY/WX    TMP DP  RH WIND       PRES   REMARKS
LINCOLN        CLEAR     24  20  84 N3        30.55S
OMAHA EPPLEY   PTCLDY    28  22  78 N9        30.54S WCI  19
BEATRICE       CLEAR     23  20  88 NE5       30.53S WCI  17
FALLS CITY     CLEAR     24  19  81 NW5       30.54R WCI  18
NEBRASKA CITY  CLEAR     26  19  77 N7        30.53S WCI  18
PLATTSMOUTH    CLEAR     27  20  76 N3        30.53S
$$

NEZ044-045-051>053-067-300600-
OMAHA AREA

CITY           SKY/WX    TMP DP  RH WIND       PRES   REMARKS
OMAHA EPPLEY   PTCLDY    28  22  78 N9        30.54S WCI  19
BLAIR          CLEAR     28  21  77 N8        30.52S WCI  19
FREMONT        CLEAR     22  19  89 CALM      30.54S
MILLARD        CLEAR     28  22  76 CALM      30.54S
OFFUTT AFB     CLEAR     28  21  74 VRB7      30.53F WCI  21
PLATTSMOUTH    CLEAR     27  20  76 N3        30.53S
WAHOO          FAIR      22  18  84 NW3       30.54R
$$



USA.gov is the U.S. government's official web portal to all federal, state and local government web resources and services.